#timestamp,LO_Frequency,Hit 
1500865215.3,286046997.0,N
1500865235.1,286046999.6,N
1500865255.8,286046998.8,N
1500865275.7,286046998.9,N
1500865295.5,286046998.5,N
1500865315.3,286046998.3,N
1500865335.2,286046998.9,N
1500865355.9,286046998.5,N
1500865375.7,286047000.2,N
1500865395.6,286047001.9,N
1500865415.4,286047003.3,N
1500865435.2,286047001.4,N
1500865455.0,286046996.6,N
1500865456.0,286046996.6,N
1500865475.8,286046998.3,N
1500865495.6,286046999.6,N
1500865515.4,286046995.4,N
1500865535.3,286046997.3,N
1500865555.1,286046996.9,N
1500865575.8,286046998.9,N
1500865595.7,286047003.7,N
1500865615.5,286047003.1,N
1500865635.3,286047004.1,N
1500865655.2,286047005.0,N
1500865675.9,286047004.5,N
1500865695.7,286047006.0,N
1500865715.6,286047005.7,N
1500865735.4,286047005.9,N
1500865755.2,286047005.5,N
1500865775.0,286047004.7,N
1500865775.9,286047004.7,N
1500865795.8,286047004.8,N
1500865815.6,286047004.2,N
1500865835.4,286047002.9,N
1500865855.3,286047004.3,N
1500865875.1,286047004.3,N
1500865895.8,286047001.6,N
1500865915.7,286047002.7,N
1500865935.5,286047001.9,N
1500865955.3,286047004.2,N
1500865975.2,286047002.4,N
1500865995.9,286046998.1,N
1500866015.7,286046997.2,N
1500866035.5,286046994.2,N
1500866055.4,286046995.2,N
1500866075.2,286046999.0,N
1500866095.0,286046995.6,N
1500866095.9,286046995.6,N
1500866115.8,286046993.6,N
1500866135.6,286046991.9,N
1500866155.4,286046996.4,N
1500866175.3,286046995.9,N
1500866195.1,286046995.5,N
1500866196.0,286046995.5,N
1500866215.8,286046998.7,N
1500866235.7,286047001.2,N
1500866255.5,286047001.6,N
1500866275.3,286047002.4,N
1500866295.2,286047000.3,N
1500866315.9,286047000.0,N
1500866335.7,286047004.3,N
1500866355.5,286047000.1,N
1500866375.4,286047004.0,N
1500866395.2,286046999.8,N
1500866415.0,286047000.6,N
1500866416.0,286047000.6,N
1500866435.8,286046999.0,N
1500866455.6,286047000.9,N
1500866475.5,286047000.3,N
1500866495.3,286047000.7,N
1500866515.1,286046998.2,N
1500866535.8,286047000.8,N
1500866555.7,286046999.4,N
1500866575.5,286047000.6,N
1500866595.3,286047000.2,N
1500866615.2,286047000.1,N
1500866635.9,286046998.1,N
1500866655.3,286046999.2,N
1500866675.1,286047000.3,N
1500866676.0,286047000.3,N
1500866695.8,286047000.3,N
1500866715.7,286047001.0,N
1500866735.5,286047002.7,N
1500866755.3,286047004.1,N
1500866775.2,286047005.9,Y
1500866795.6,286047003.5,N
1500866815.4,286047004.0,N
1500866835.3,286047002.5,N
1500866855.1,286047003.2,N
1500866856.0,286047003.2,N
1500866875.8,286047003.7,N
1500866895.7,286047004.1,N
1500866915.5,286047005.2,N
1500866935.3,286047005.7,N
1500866955.1,286047005.7,N
1500866975.9,286047005.9,N
1500866995.7,286047000.1,N
1500867015.5,286047001.2,N
1500867035.4,286047000.2,N
1500867055.2,286047001.6,N
1500867075.0,286047000.1,N
1500867075.9,286047000.1,N
1500867095.8,286047001.5,N
1500867115.6,286047003.5,N
1500867135.4,286047007.5,Y
1500867155.3,286047001.8,N
1500867175.1,286047004.3,N
1500867176.0,286047004.3,N
1500867195.8,286047001.6,N
1500867215.7,286046999.7,N
1500867235.5,286047000.9,N
1500867255.3,286046998.3,N
1500867275.1,286046998.3,N
1500867295.9,286046999.1,N
1500867315.7,286046998.8,N
1500867335.5,286046998.5,N
1500867355.4,286047001.0,N
1500867375.2,286046996.5,N
1500867395.0,286046996.6,N
1500867395.9,286046996.6,N
1500867415.8,286046996.5,N
1500867435.6,286046999.3,N
1500867455.4,286046996.5,N
1500867475.3,286047000.3,N
1500867495.8,286047002.0,N
1500867515.6,286047004.4,N
1500867535.4,286047003.8,N
1500867555.2,286047004.3,N
1500867575.1,286047002.0,N
1500867576.0,286047002.0,N
1500867595.8,286047001.7,N
1500867615.6,286047000.4,N
1500867635.5,286046998.8,N
1500867655.3,286046996.8,N
1500867675.1,286046995.7,N
1500867695.9,286046998.4,N
1500867715.7,286047001.2,N
1500867735.5,286046998.8,N
1500867755.4,286046998.9,N
1500867775.2,286046996.9,N
1500867795.0,286046998.1,N
1500867795.9,286046998.1,N
1500867815.8,286046999.9,N
1500867835.6,286046996.8,N
1500867855.4,286046999.5,N
1500867875.2,286046999.6,N
1500867895.1,286046999.2,N
1500867896.0,286046999.2,N
1500867915.8,286047002.0,N
1500867935.6,286047002.2,N
1500867955.5,286047002.3,N
1500867975.3,286047000.0,N
1500867995.1,286047001.6,N
1500868015.9,286047001.5,N
1500868035.7,286047002.4,N
1500868055.5,286046999.7,N
1500868075.4,286047000.2,N
1500868095.2,286047000.7,N
1500868115.0,286046997.2,N
1500868115.9,286046997.2,N
1500868135.8,286046995.8,N
1500868155.6,286046997.2,N
1500868175.4,286046998.8,N
1500868195.2,286046999.3,N
1500868215.1,286046996.9,N
1500868216.0,286046996.9,N
1500868235.8,286046999.5,N
1500868255.6,286046998.5,N
1500868275.8,286047002.7,N
1500868295.6,286046998.9,N
1500868315.4,286047000.5,N
1500868335.3,286046998.9,N
1500868355.1,286046998.1,N
1500868375.8,286046998.5,N
1500868395.7,286046998.7,N
1500868415.5,286046996.5,N
1500868435.3,286046999.5,N
1500868455.2,286046998.3,N
1500868475.9,286047001.7,N
1500868495.7,286047001.7,N
1500868515.6,286047005.3,Y
1500868535.4,286047003.0,N
1500868555.2,286047005.1,N
1500868575.1,286047006.0,N
1500868576.0,286047006.0,N
1500868595.8,286047005.4,N
1500868615.6,286047004.1,N
1500868635.5,286047002.9,N
1500868655.3,286047003.3,N
1500868675.1,286047003.7,N
1500868695.8,286047001.6,N
1500868715.7,286047003.2,N
1500868735.5,286047003.3,N
1500868755.3,286047005.1,N
1500868775.2,286047005.3,N
1500868795.9,286047003.5,N
